sat.trackr.live / text

‹ back to catalog

STARLINK-3874

NORAD 52365 · 2022-045AL

PAYLOAD ACTIVE UNKNOWN

§ Identity

Operator
Country
US
Launch date
2022-04-29
Launch site
AFETR
Launch vehicle
Mass (kg)
RCS (m²)

Purposes: comms

External: N2YO · Heavens-Above · Gunter

§ Orbital elements

Epoch: 2026-09-20T00:06:40.697280Z

Period
93.85 min
Inclination
53.1605°
Eccentricity
0.0001020
Mean motion
15.34361188 rev/d
Perigee alt
462.1 km
Apogee alt
463.5 km
Semi-major
6,841.0 km
B*
1.9104e-4
RAAN
27.6929°
Arg perigee
74.1929°
Mean anomaly
285.9186°
Rev number
24,537

§ Raw data

STARLINK-38741 52365U 22045AL  26263.00463770  .00006076  00000+0  19104-3 0  99962 52365  53.1605  27.6929 0001020  74.1929 285.9186 15.34361188245373

JSON: /api/v1/satellites/52365 · /tle

For live sub-satellite position, see the globe view (requires WebGL).

§ Visibility from observer

Set your observer location to see the next 7 days of passes ≥ 10°. The values pass through the URL so the page stays shareable.

No JS? Fill the form by hand. The geolocation button needs JavaScript.